Regional Weather Roundup
Issued by NWS Northern Indiana

Home | Current Version | Previous Version | Text Only | Print | Product List | Glossary On
Versions: 1 2 3 4 5 6 7 8 9 10 11 12 13 14 15 16 17 18 19 20 21 22 23 24 25 26 27 28 29 30 31 32 33 34 35 36 37 38 39 40 41 42 43 44 45 46 47 48 49 50
000
ASUS43 KIWX 252000
RWRIWX

KIWX WEATHER ROUNDUP
NATIONAL WEATHER SERVICE NORTHERN INDIANA
400 PM EDT SAT OCT 25 2014

NOTE: "FAIR" INDICATES FEW OR NO CLOUDS BELOW 12,000 FEET WITH NO
SIGNIFICANT WEATHER AND/OR OBSTRUCTIONS TO VISIBILITY.

* THESE STATIONS ARE NOT UNDER NWS QUALITY CONTROL. THEY ALSO MAY NOT
  REPORT WEATHER SUCH AS PRECIPITATION OR FOG.

INZ001>027-252100-
NORTHERN INDIANA

CITY           SKY/WX    TMP DP  RH WIND       PRES   REMARKS
GARY*          MOSUNNY   75  34  22 W17G29    29.92S
SOUTH BEND     NOT AVBL
ELKHART*       SUNNY     66  34  30 NW15G21   29.90
GOSHEN         SUNNY     68  38  33 W17       29.88S
ANGOLA*        SUNNY     70  45  40 W16       29.83F
FORT WAYNE     MOSUNNY   69  47  45 W18G26    29.88F
PERU/GRISSOM   SUNNY     69  56  62 W13       29.91F

$$
INZ028>050-252100-
CENTRAL INDIANA

CITY           SKY/WX    TMP DP  RH WIND       PRES   REMARKS
LAFAYETTE      SUNNY     72  51  47 NW13      29.93F
KOKOMO*        SUNNY     70  52  52 W17       29.92S
MUNCIE*        LGT RAIN  75  48  38 W18G28    29.89F
INDIANAPOLIS   PTSUNNY   75  48  38 W18       29.93F

$$
MIZ043>046-050>051-056>058-064>065-071>073-077>080-252100-
SOUTHWEST LOWER MICHIGAN

CITY           SKY/WX    TMP DP  RH WIND       PRES   REMARKS
BATTLE CREEK   SUNNY     67  31  26 W21G28    29.84R
BENTON HARBOR  SUNNY     62  47  57 W14       29.89F
COLDWATER*     SUNNY     68  36  30 W23G32    29.82F
HILLSDALE*     SUNNY     68  41  37 W20G26    29.81S
HOLLAND        SUNNY     65  45  48 W17G29    29.86S
GRAND RAPIDS   MOSUNNY   65  36  34 W26G36    29.82R
KALAMAZOO      SUNNY     66  30  26 NW23G35   29.86R
STURGIS*       SUNNY     66  37  34 W18G25    29.85S
THREE RIVERS*  FAIR      67  35  30 W18G25    29.86S

$$
OHZ001>008-015>018-024>025-252100-
NORTHWEST OHIO

CITY           SKY/WX    TMP DP  RH WIND       PRES   REMARKS
DEFIANCE       SUNNY     69  48  47 W10G21    29.83F
FINDLAY        SUNNY     72  51  47 W22G35    29.81F HAZE
TOLEDO EXPRESS SUNNY     68  48  48 W17G30    29.79F
TOLEDO METCALF SUNNY     69  47  45 W22       29.79F
LIMA           SUNNY     74  51  44 W14       29.85F

$$
AND FOR LAKE MICHIGAN COASTAL AND OPEN LAKE BUOY OBSERVATIONS

STATION/POSITION TEMP    WIND        PRES    VSBY  WAVE
                 AIR SEA DIR/SP/G                  HT/PER
                 (F)     (DEG/KT/KT) (MB)    (MI)  (FT/S)
CALUMET HARBOR    73     250/  8/ 11 1011.7F
MICHIGAN CITY     61     240/  9/ 10   N/A
SAINT JOSEPH      61                 1013.2F
SOUTH LAKE BUOY   58 54  240/ 12/ 14 1011.9F         2/ 4
MICHIGAN CITY CG     57                N/A       6   3

$$
&&



USA.gov is the U.S. government's official web portal to all federal, state and local government web resources and services.